Tracking 20621 objects as of 29-Mar-2020
HD Live streaming from Space Station
objects crossing your sky now

SL-8 R/B

Track SL-8 R/B now!
10-day predictions


NORAD ID: 23093
Int'l Code: 1994-024B
Perigee: 970.6 km
Apogee: 986.9 km
Inclination: 82.9 °
Period: 104.5 minutes
Semi major axis: 7349 km
RCS: 8.1603 m2 (large)
Launch date: April 26, 1994
Source: Commonwealth of Independent States (former USSR) (CIS)
Launch site: PLESETSK MISSILE AND SPACE COMPLEX (PKMTR)

Note: This is a ROCKET BODY
aabbcc
Your satellite tracking list
Your tracking list is empty




NASA's NSSDC Master Catalog

Two Line Element Set (TLE):
1 23093U 94024B   20089.42286141 -.00000080 +00000-0 -94859-4 0  9992
2 23093 082.9431 078.5732 0011100 041.5582 318.6417 13.77821779771126
Source of the keplerian elements: AFSPC